AU224 Weather Reports


time (UTC)temp
F
wind
direction
speed
knots
gust
knots
rain 1hr
in
rain 24hr
in
rain mn
in
humidity
%
barometer
mb
20260503020049 47 0 0.0 0.0 0.00 0.00 0.00 72 1012.9
20260503014601 47 0 0.0 0.0 0.00 0.00 0.00 73 1012.8
20260503013046 47 0 0.0 0.0 0.00 0.00 0.00 73 1012.8
20260503011605 47 0 0.0 2.6 0.00 0.00 0.00 72 1012.9
20260503010044 47 0 0.0 0.0 0.00 0.00 0.00 71 1013.0
20260503004545 47 0 0.0 0.0 0.00 0.00 0.00 70 1013.0
20260503003047 48 0 0.0 0.0 0.00 0.00 0.00 70 1013.1
20260503001547 48 0 0.0 0.0 0.00 0.00 0.00 70 1013.2
20260503000041 48 0 0.0 0.0 0.00 0.00 0.00 70 1013.3
20260502234603 48 0 0.0 0.0 0.00 0.00 0.00 69 1013.4
20260502233049 49 0 0.0 0.0 0.00 0.00 0.00 67 1013.4
20260502231549 49 0 0.0 0.0 0.00 0.00 0.00 66 1013.5
20260502230057 50 0 0.0 0.0 0.00 0.00 0.00 66 1013.6
20260502224543 50 0 0.0 0.0 0.00 0.00 0.00 65 1013.8
20260502223058 51 0 0.0 0.0 0.00 0.00 0.00 65 1013.8
20260502221544 52 0 0.0 0.0 0.00 0.00 0.00 64 1013.9
20260502220057 52 0 0.0 0.0 0.00 0.00 0.00 64 1013.9
20260502214550 53 0 0.0 0.0 0.00 0.00 0.00 64 1014.0
20260502213051 54 0 0.0 0.0 0.00 0.00 0.00 62 1014.0
20260502211548 55 0 0.0 0.0 0.00 0.00 0.00 61 1014.0
20260502210049 55 0 0.0 0.0 0.00 0.00 0.00 60 1014.1
20260502204547 56 0 0.0 0.0 0.00 0.00 0.00 58 1014.3
20260502203115 57 0 0.0 0.0 0.00 0.00 0.00 57 1014.4
20260502201543 59 0 0.0 0.0 0.00 0.00 0.00 56 1014.5
20260502200051 59 0 0.0 0.0 0.00 0.00 0.00 55 1014.6
20260502194555 61 0 0.0 0.0 0.00 0.00 0.00 53 1014.6
20260502193058 62 0 0.0 0.0 0.00 0.00 0.00 51 1014.5
20260502191549 64 0 0.0 0.0 0.00 0.00 0.00 49 1014.4
20260502190049 65 0 0.0 0.0 0.00 0.00 0.00 46 1014.3
20260502184603 67 0 0.0 0.0 0.00 0.00 0.00 44 1014.1
20260502183050 68 0 0.0 0.0 0.00 0.00 0.00 42 1014.1
20260502181545 68 0 0.0 0.0 0.00 0.00 0.00 40 1014.0
20260502163043 74 0 0.0 2.6 0.00 0.00 0.00 34 1014.4
20260502161550 74 360 0.0 2.6 0.00 0.00 0.00 31 1014.5
20260502151607 77 0 0.0 5.2 0.00 0.00 0.00 28 1015.2
20260502123043 75 287 0.9 7.8 0.00 0.00 0.00 33 1017.2
20260502121545 75 0 0.0 7.8 0.00 0.00 0.00 33 1017.3
20260502114542 74 0 0.0 4.3 0.00 0.00 0.00 32 1017.7
20260502113045 75 360 4.3 7.8 0.00 0.00 0.00 36 1017.9
20260502111541 73 0 0.0 7.8 0.00 0.00 0.00 35 1018.1
20260502110046 73 0 0.0 8.7 0.00 0.00 0.00 35 1018.2
20260502104541 73 225 2.6 7.8 0.00 0.00 0.00 35 1018.4
20260502103042 72 292 0.9 7.0 0.00 0.00 0.00 35 1018.7
20260502101603 71 269 3.5 0.0 0.00 0.00 0.00 36 1018.8
20260502064547 53 0 0.0 0.0 0.00 0.00 0.00 65 1019.9
20260502063043 51 0 0.0 0.0 0.00 0.00 0.00 64 1019.8
20260502061543 50 0 0.0 0.0 0.00 0.00 0.00 67 1019.7
20260502060045 47 0 0.0 3.5 0.00 0.00 0.00 69 1019.8
20260502054557 45 182 0.0 4.3 0.00 0.00 0.00 72 1019.8
20260502053052 42 0 0.0 3.5 0.00 0.00 0.00 74 1019.8
20260502051548 40 0 0.0 3.5 0.00 0.00 0.00 76 1019.7
20260502050049 36 168 0.0 3.5 0.00 0.00 0.00 80 1019.6
20260502044547 35 0 0.0 1.7 0.00 0.00 0.00 78 1019.6
20260502043051 35 0 0.0 0.0 0.00 0.00 0.00 77 1019.6
20260502041610 35 0 0.0 0.0 0.00 0.00 0.00 75 1019.5
20260502040053 35 0 0.0 0.0 0.00 0.00 0.00 74 1019.5
20260502034547 36 0 0.0 0.0 0.00 0.00 0.00 75 1019.6
20260502033042 36 0 0.0 0.0 0.00 0.00 0.00 74 1019.6
20260502031543 36 0 0.0 0.0 0.00 0.00 0.00 73 1019.6
20260502030058 36 0 0.0 0.0 0.00 0.00 0.00 72 1019.8
20260502024600 37 0 0.0 0.0 0.00 0.00 0.00 71 1019.8
20260502023100 37 0 0.0 0.0 0.00 0.00 0.00 71 1019.9
20260502021544 37 0 0.0 0.0 0.00 0.00 0.00 69 1019.9